Zurück zum Katalog

CZ-6A DEB

AktivPO
NORAD 54591·DEBRIS·🇨🇳 China

Gestartet Nov 11, 2022 von Taiyuan Satellite Launch Center

Loading…

Nächste Überflüge (nächste 24 Stunden)

TLE

AktuellSource: Space-Track

Epoche: Sep 12, 2026, 18:16 UTC

1 54591U 22151MR  26255.76117884  .00014221  00000-0  13461-2 0  9994
2 54591  98.7165   2.5442 0075975 329.1056  30.5700 14.91577990129603

Verfolge CZ-6A DEB in Echtzeit mit AllMySat

Download on the App Store